Change the Weather History Date:

Thursday, November 7, 2013

  Actual Average Record
Temperature  
Mean Temperature 28 °F -  
Max Temperature 30 °F 37 °F 62 °F (2010)
Min Temperature 26 °F 23 °F 8 °F (2003)
Degree Days  
Heating Degree Days 37    
Moisture  
Dew Point 23 °F    
Average Humidity 80    
Maximum Humidity 93    
Minimum Humidity 60    
Precipitation  
Precipitation 0.00 in - - ()
Sea Level Pressure  
Sea Level Pressure 30.07 in    
Wind  
Wind Speed 5 mph (West)    
Max Wind Speed 9 mph    
Max Gust Speed -    
Visibility 9 miles    
Events Snow    
Averages and records for this station are not official NWS values.
T = Trace of Precipitation, MM = Missing Value Source: NWS Daily Summary

Daily Weather History Graph

Daily Weather History Graph

Search for Another Location

Airport or City:

Trip Planner

Search our weather history database for the weather conditions in past years. The results will help you decide how hot, cold, wet, or windy it might be!

Date:

Astronomy

Nov. 07, 2013 Rise Set
Actual Time 7:01 AM CST 4:39 PM CST
Civil Twilight 6:28 AM CST 5:12 PM CST
Nautical Twilight 5:51 AM CST 5:49 PM CST
Astronomical Twilight 5:15 AM CST 6:25 PM CST
Moon 11:14 AM CST (11/7) 8:49 PM CST (11/7)
Length of Visible Light 10h 44m
Length of Day
9h 38m
Waxing Crescent, 23% of the Moon is Illuminated
Nov 7
Waxing Crescent
Nov 9
First Quarter
Nov 17
Full
Nov 25
Last Quarter
Dec 2
New

Hourly Weather History & Observations

Time (CST) Temp. Windchill Dew Point Humidity Pressure Visibility Wind Dir Wind Speed Gust Speed Precip Events Conditions
12:13 AM 28.4 °F 21.2 °F 24.8 °F 86% 30.04 in 10.0 mi West 6.9 mph - N/A   Overcast
12:33 AM 28.4 °F 23.3 °F 24.8 °F 86% 30.05 in 10.0 mi West 4.6 mph - N/A Snow Light Snow
12:52 AM 28.4 °F 20.4 °F 24.8 °F 86% 30.05 in 10.0 mi West 8.1 mph - N/A Snow Light Snow
1:13 AM 28.4 °F 20.4 °F 24.8 °F 86% 30.05 in 10.0 mi West 8.1 mph - N/A Snow Light Snow
1:33 AM 28.4 °F 21.2 °F 24.8 °F 86% 30.05 in 10.0 mi West 6.9 mph - N/A Snow Light Snow
1:52 AM 28.4 °F 21.2 °F 24.8 °F 86% 30.05 in 10.0 mi West 6.9 mph - N/A Snow Light Snow
2:13 AM 28.4 °F 21.2 °F 24.8 °F 86% 30.05 in 10.0 mi West 6.9 mph - N/A Snow Light Snow
2:32 AM 28.4 °F 23.3 °F 24.8 °F 86% 30.04 in 7.0 mi West 4.6 mph - N/A Snow Light Snow
2:53 AM 28.4 °F 23.3 °F 24.8 °F 86% 30.04 in 7.0 mi West 4.6 mph - N/A Snow Light Snow
3:13 AM 28.4 °F 22.2 °F 24.8 °F 86% 30.04 in 4.0 mi West 5.8 mph - N/A Snow Light Snow
3:33 AM 26.6 °F 21.2 °F 24.8 °F 93% 30.05 in 10.0 mi West 4.6 mph - N/A Snow Light Snow
3:52 AM 26.6 °F 21.2 °F 24.8 °F 93% 30.04 in 10.0 mi West 4.6 mph - N/A   Overcast
4:13 AM 26.6 °F 20.0 °F 24.8 °F 93% 30.05 in 10.0 mi West 5.8 mph - N/A Snow Light Snow
4:33 AM 26.6 °F 21.2 °F 24.8 °F 93% 30.05 in 10.0 mi West 4.6 mph - N/A   Overcast
4:52 AM 26.6 °F 21.2 °F 24.8 °F 93% 30.05 in 10.0 mi West 4.6 mph - N/A   Overcast
5:13 AM 26.6 °F 21.2 °F 24.8 °F 93% 30.06 in 10.0 mi West 4.6 mph - N/A   Overcast
5:33 AM 26.6 °F 21.2 °F 24.8 °F 93% 30.06 in 10.0 mi West 4.6 mph - N/A   Overcast
5:52 AM 26.6 °F 22.6 °F 24.8 °F 93% 30.06 in 10.0 mi West 3.5 mph - N/A   Overcast
6:13 AM 26.6 °F 22.6 °F 24.8 °F 93% 30.06 in 10.0 mi WNW 3.5 mph - N/A   Overcast
6:33 AM 26.6 °F 21.2 °F 24.8 °F 93% 30.06 in 10.0 mi West 4.6 mph - N/A   Overcast
6:52 AM 26.6 °F 21.2 °F 24.8 °F 93% 30.06 in 10.0 mi West 4.6 mph - N/A   Overcast
7:13 AM 26.6 °F 21.2 °F 24.8 °F 93% 30.07 in 10.0 mi West 4.6 mph - N/A   Overcast
7:33 AM 26.6 °F 21.2 °F 24.8 °F 93% 30.07 in 10.0 mi WSW 4.6 mph - N/A Snow Light Snow
7:51 AM 28.4 °F 22.2 °F 24.8 °F 86% 30.07 in 10.0 mi West 5.8 mph - N/A Snow Light Snow
8:13 AM 28.4 °F 22.2 °F 24.8 °F 86% 30.07 in 7.0 mi West 5.8 mph - N/A Snow Light Snow
8:33 AM 28.4 °F 21.2 °F 24.8 °F 86% 30.07 in 7.0 mi West 6.9 mph - N/A Snow Light Snow
8:52 AM 28.4 °F 22.2 °F 26.6 °F 93% 30.08 in 2.0 mi West 5.8 mph - N/A Snow Light Snow
9:12 AM 28.4 °F 22.2 °F 26.6 °F 93% 30.08 in 3.0 mi West 5.8 mph - N/A Snow Light Snow
9:33 AM 28.4 °F 22.2 °F 26.6 °F 93% 30.08 in 2.5 mi West 5.8 mph - N/A Snow Light Snow
9:52 AM 28.4 °F 21.2 °F 26.6 °F 93% 30.08 in 4.0 mi WNW 6.9 mph - N/A Snow Light Snow
10:12 AM 30.2 °F 22.6 °F 26.6 °F 86% 30.08 in 7.0 mi WNW 8.1 mph - N/A Snow Light Snow
10:33 AM 30.2 °F 22.6 °F 24.8 °F 80% 30.09 in 10.0 mi NW 8.1 mph - N/A   Overcast
10:52 AM 30.2 °F 23.4 °F 24.8 °F 80% 30.09 in 10.0 mi WNW 6.9 mph - N/A   Overcast
11:12 AM 30.2 °F 24.3 °F 24.8 °F 80% 30.09 in 10.0 mi WNW 5.8 mph - N/A   Overcast
11:33 AM 30.2 °F 22.6 °F 24.8 °F 80% 30.09 in 10.0 mi WNW 8.1 mph - N/A   Overcast
11:52 AM 30.2 °F 23.4 °F 24.8 °F 80% 30.08 in 10.0 mi West 6.9 mph - N/A   Overcast
12:13 PM 30.2 °F 23.4 °F 24.8 °F 80% 30.08 in 10.0 mi West 6.9 mph - N/A   Overcast
12:32 PM 30.2 °F 21.9 °F 24.8 °F 80% 30.08 in 10.0 mi West 9.2 mph - N/A   Overcast
12:53 PM 30.2 °F 22.6 °F 24.8 °F 80% 30.08 in 10.0 mi West 8.1 mph - N/A   Overcast
1:13 PM 30.2 °F 22.6 °F 24.8 °F 80% 30.08 in 10.0 mi WNW 8.1 mph - N/A   Overcast
1:32 PM 30.2 °F 23.4 °F 24.8 °F 80% 30.08 in 10.0 mi NW 6.9 mph - N/A   Overcast
1:53 PM 30.2 °F 22.6 °F 24.8 °F 80% 30.08 in 10.0 mi West 8.1 mph - N/A   Overcast
2:12 PM 30.2 °F 23.4 °F 24.8 °F 80% 30.08 in 10.0 mi West 6.9 mph - N/A   Overcast
2:32 PM 30.2 °F 22.6 °F 24.8 °F 80% 30.08 in 10.0 mi WNW 8.1 mph - N/A   Overcast
2:53 PM 30.2 °F 24.3 °F 24.8 °F 80% 30.08 in 10.0 mi WNW 5.8 mph - N/A   Overcast
3:12 PM 30.2 °F 25.4 °F 24.8 °F 80% 30.07 in 10.0 mi NW 4.6 mph - N/A   Overcast
3:32 PM 30.2 °F - 24.8 °F 80% 30.07 in 10.0 mi Calm Calm - N/A   Overcast
3:53 PM 30.2 °F - 24.8 °F 80% 30.08 in 10.0 mi Calm Calm - N/A   Overcast
4:13 PM 30.2 °F 25.4 °F 24.8 °F 80% 30.07 in 10.0 mi West 4.6 mph - N/A   Overcast
4:32 PM 30.2 °F 26.7 °F 23.0 °F 75% 30.08 in 10.0 mi West 3.5 mph - N/A   Overcast
4:53 PM 30.2 °F 24.3 °F 21.2 °F 69% 30.08 in 10.0 mi West 5.8 mph - N/A   Overcast
5:13 PM 30.2 °F 26.7 °F 21.2 °F 69% 30.09 in 10.0 mi WNW 3.5 mph - N/A   Overcast
5:32 PM 30.2 °F 26.7 °F 21.2 °F 69% 30.09 in 10.0 mi WNW 3.5 mph - N/A   Overcast
5:53 PM 30.2 °F 26.7 °F 21.2 °F 69% 30.09 in 10.0 mi West 3.5 mph - N/A   Overcast
6:13 PM 30.2 °F 26.7 °F 21.2 °F 69% 30.10 in 10.0 mi West 3.5 mph - N/A   Overcast
6:32 PM 30.2 °F - 21.2 °F 69% 30.09 in 10.0 mi Calm Calm - N/A   Overcast
6:53 PM 30.2 °F 26.7 °F 19.4 °F 64% 30.10 in 10.0 mi West 3.5 mph - N/A   Overcast
7:13 PM 30.2 °F 26.7 °F 19.4 °F 64% 30.09 in 10.0 mi WNW 3.5 mph - N/A   Overcast
7:32 PM 30.2 °F 26.7 °F 19.4 °F 64% 30.09 in 10.0 mi West 3.5 mph - N/A   Overcast
7:53 PM 30.2 °F 25.4 °F 19.4 °F 64% 30.08 in 10.0 mi West 4.6 mph - N/A   Overcast
8:13 PM 30.2 °F 26.7 °F 19.4 °F 64% 30.08 in 10.0 mi West 3.5 mph - N/A   Overcast
8:32 PM 30.2 °F 26.7 °F 17.6 °F 60% 30.09 in 10.0 mi West 3.5 mph - N/A   Overcast
8:53 PM 30.2 °F 26.7 °F 17.6 °F 60% 30.09 in 10.0 mi West 3.5 mph - N/A   Overcast
9:12 PM 30.2 °F 26.7 °F 17.6 °F 60% 30.09 in 10.0 mi West 3.5 mph - N/A   Overcast
9:33 PM 30.2 °F 24.3 °F 17.6 °F 60% 30.09 in 10.0 mi West 5.8 mph - N/A   Overcast
9:52 PM 28.4 °F - 17.6 °F 64% 30.10 in 10.0 mi Calm Calm - N/A   Overcast
10:13 PM 28.4 °F - 17.6 °F 64% 30.09 in 10.0 mi Calm Calm - N/A   Overcast
10:33 PM 28.4 °F - 17.6 °F 64% 30.09 in 10.0 mi Calm Calm - N/A   Overcast
10:52 PM 28.4 °F - 17.6 °F 64% 30.09 in 10.0 mi Calm Calm - N/A   Overcast
11:13 PM 28.4 °F 24.6 °F 17.6 °F 64% 30.09 in 10.0 mi West 3.5 mph - N/A   Overcast
11:33 PM 28.4 °F - 17.6 °F 64% 30.08 in 10.0 mi Calm Calm - N/A   Mostly Cloudy
11:52 PM 26.6 °F - 17.6 °F 69% 30.08 in 10.0 mi Calm Calm - N/A   Scattered Clouds